Time,TemperatureF,DewpointF,PressureIn,WindDirection,WindDirectionDegrees,WindSpeedMPH,WindSpeedGustMPH,Humidity,HourlyPrecipIn,Conditions,Clouds,dailyrainin,SoftwareType,DateUTC
2013-07-16 00:01:00,70.1,68.6,30.17,ESE,119,1.0,3.0,95,0.00,,,0.00,WeatherCatV1.15B25,2013-07-16 05:01:00,
2013-07-16 00:06:00,70.3,68.8,30.17,ESE,123,0.0,2.0,95,0.00,,,0.00,WeatherCatV1.15B25,2013-07-16 05:06:00,
2013-07-16 00:11:00,70.5,69.0,30.17,ESE,120,0.0,4.0,95,0.00,,,0.00,WeatherCatV1.15B25,2013-07-16 05:11:00,
2013-07-16 00:16:00,70.7,69.2,30.17,SSW,194,0.0,2.0,95,0.00,,,0.00,WeatherCatV1.15B25,2013-07-16 05:16:00,
2013-07-16 00:21:00,70.7,68.9,30.17,SSW,194,0.0,1.0,94,0.00,,,0.00,WeatherCatV1.15B25,2013-07-16 05:21:00,
2013-07-16 00:26:00,70.8,69.3,30.17,ESE,121,1.0,1.0,95,0.00,,,0.00,WeatherCatV1.15B25,2013-07-16 05:26:00,
2013-07-16 00:31:00,70.8,69.3,30.17,ESE,121,0.0,0.0,95,0.00,,,0.00,WeatherCatV1.15B25,2013-07-16 05:31:00,
2013-07-16 00:36:00,70.9,69.1,30.17,ESE,121,0.0,1.0,94,0.00,,,0.00,WeatherCatV1.15B25,2013-07-16 05:36:00,
2013-07-16 00:41:00,70.9,69.1,30.17,ESE,121,0.0,0.0,94,0.00,,,0.00,WeatherCatV1.15B25,2013-07-16 05:41:00,
2013-07-16 00:46:00,70.9,69.1,30.17,ESE,121,0.0,0.0,94,0.00,,,0.00,WeatherCatV1.15B25,2013-07-16 05:46:00,
2013-07-16 00:51:00,70.9,69.1,30.17,ESE,121,0.0,1.0,94,0.00,,,0.00,WeatherCatV1.15B25,2013-07-16 05:51:00,
2013-07-16 00:56:00,70.9,69.1,30.17,ESE,121,0.0,0.0,94,0.00,,,0.00,WeatherCatV1.15B25,2013-07-16 05:56:00,
2013-07-16 01:01:00,70.8,69.0,30.17,ESE,121,0.0,0.0,94,0.00,,,0.00,WeatherCatV1.15B25,2013-07-16 06:01:00,
2013-07-16 01:06:00,70.8,69.0,30.17,ESE,121,0.0,0.0,94,0.00,,,0.00,WeatherCatV1.15B25,2013-07-16 06:06:00,
2013-07-16 01:11:00,70.7,68.9,30.17,ESE,121,0.0,1.0,94,0.00,,,0.00,WeatherCatV1.15B25,2013-07-16 06:11:00,
2013-07-16 01:16:00,70.6,68.8,30.17,ESE,121,0.0,0.0,94,0.00,,,0.00,WeatherCatV1.15B25,2013-07-16 06:16:00,
2013-07-16 01:21:00,70.5,68.7,30.16,ESE,121,0.0,1.0,94,0.00,,,0.00,WeatherCatV1.15B25,2013-07-16 06:21:00,
2013-07-16 01:26:00,70.4,68.6,30.17,ESE,121,0.0,0.0,94,0.00,,,0.00,WeatherCatV1.15B25,2013-07-16 06:26:00,
2013-07-16 01:31:00,70.3,68.5,30.16,ESE,121,0.0,0.0,94,0.00,,,0.00,WeatherCatV1.15B25,2013-07-16 06:31:00,
2013-07-16 01:36:00,70.4,68.9,30.17,ESE,122,0.0,1.0,95,0.00,,,0.00,WeatherCatV1.15B25,2013-07-16 06:36:00,
2013-07-16 01:41:00,70.5,69.0,30.17,SE,140,1.0,6.0,95,0.00,,,0.00,WeatherCatV1.15B25,2013-07-16 06:41:00,
2013-07-16 01:46:00,70.7,69.2,30.17,SE,145,2.0,2.0,95,0.00,,,0.00,WeatherCatV1.15B25,2013-07-16 06:46:00,
2013-07-16 01:51:00,70.9,69.4,30.17,SE,146,1.0,2.0,95,0.00,,,0.00,WeatherCatV1.15B25,2013-07-16 06:51:00,
2013-07-16 01:56:00,70.9,69.7,30.17,SSE,154,1.0,1.0,96,0.00,,,0.00,WeatherCatV1.15B25,2013-07-16 06:56:00,
2013-07-16 02:01:00,71.0,69.8,30.17,SSE,163,2.0,2.0,96,0.00,,,0.00,WeatherCatV1.15B25,2013-07-16 07:01:00,
2013-07-16 02:06:00,71.0,69.8,30.17,SE,135,3.0,3.0,96,0.00,,,0.00,WeatherCatV1.15B25,2013-07-16 07:06:00,
2013-07-16 02:11:00,71.1,69.9,30.17,ESE,121,1.0,3.0,96,0.00,,,0.00,WeatherCatV1.15B25,2013-07-16 07:11:00,
2013-07-16 02:16:00,71.1,69.9,30.17,ESE,113,0.0,6.0,96,0.00,,,0.00,WeatherCatV1.15B25,2013-07-16 07:16:00,
2013-07-16 02:21:00,71.2,70.0,30.17,SE,130,1.0,2.0,96,0.00,,,0.00,WeatherCatV1.15B25,2013-07-16 07:21:00,
2013-07-16 02:26:00,71.2,70.0,30.17,SE,146,3.0,3.0,96,0.00,,,0.00,WeatherCatV1.15B25,2013-07-16 07:26:00,
2013-07-16 02:31:00,71.3,70.1,30.17,SE,126,2.0,3.0,96,0.00,,,0.00,WeatherCatV1.15B25,2013-07-16 07:31:00,
2013-07-16 02:36:00,71.3,70.1,30.17,ESE,123,0.0,1.0,96,0.00,,,0.00,WeatherCatV1.15B25,2013-07-16 07:36:00,
2013-07-16 02:41:00,71.3,70.1,30.17,SE,128,1.0,2.0,96,0.00,,,0.00,WeatherCatV1.15B25,2013-07-16 07:41:00,
2013-07-16 02:46:00,71.3,70.1,30.17,SE,134,0.0,3.0,96,0.00,,,0.00,WeatherCatV1.15B25,2013-07-16 07:46:00,
2013-07-16 02:51:00,71.3,70.1,30.17,SE,146,0.0,0.0,96,0.00,,,0.00,WeatherCatV1.15B25,2013-07-16 07:51:00,
2013-07-16 02:56:00,71.3,70.1,30.17,SE,130,0.0,4.0,96,0.00,,,0.00,WeatherCatV1.15B25,2013-07-16 07:56:00,
2013-07-16 03:01:00,71.3,70.1,30.17,SE,131,0.0,2.0,96,0.00,,,0.00,WeatherCatV1.15B25,2013-07-16 08:01:00,
2013-07-16 03:06:00,71.3,70.1,30.17,SE,142,0.0,1.0,96,0.00,,,0.00,WeatherCatV1.15B25,2013-07-16 08:06:00,
2013-07-16 03:11:00,71.3,70.1,30.17,SE,146,1.0,3.0,96,0.00,,,0.00,WeatherCatV1.15B25,2013-07-16 08:11:00,
2013-07-16 03:16:00,71.3,70.1,30.17,SSE,157,0.0,3.0,96,0.00,,,0.00,WeatherCatV1.15B25,2013-07-16 08:16:00,
2013-07-16 03:21:00,71.3,70.1,30.17,SE,138,1.0,3.0,96,0.00,,,0.00,WeatherCatV1.15B25,2013-07-16 08:21:00,
2013-07-16 03:26:00,71.3,70.1,30.17,South,170,0.0,3.0,96,0.00,,,0.00,WeatherCatV1.15B25,2013-07-16 08:26:00,
2013-07-16 03:31:00,71.3,70.4,30.17,SSE,155,1.0,5.0,97,0.00,,,0.00,WeatherCatV1.15B25,2013-07-16 08:31:00,
2013-07-16 03:36:00,71.3,70.4,30.17,SSE,161,1.0,2.0,97,0.00,,,0.00,WeatherCatV1.15B25,2013-07-16 08:36:00,
2013-07-16 03:41:00,71.3,70.4,30.17,SSE,165,0.0,4.0,97,0.00,,,0.00,WeatherCatV1.15B25,2013-07-16 08:41:00,
2013-07-16 03:46:00,71.3,70.4,30.17,SSE,157,0.0,2.0,97,0.00,,,0.00,WeatherCatV1.15B25,2013-07-16 08:46:00,
2013-07-16 03:51:00,71.2,70.3,30.17,South,173,2.0,4.0,97,0.00,,,0.00,WeatherCatV1.15B25,2013-07-16 08:51:00,
2013-07-16 03:56:00,71.2,70.3,30.17,South,190,0.0,2.0,97,0.00,,,0.00,WeatherCatV1.15B25,2013-07-16 08:56:00,
2013-07-16 04:01:00,71.2,70.3,30.17,SE,144,0.0,0.0,97,0.00,,,0.00,WeatherCatV1.15B25,2013-07-16 09:01:00,
2013-07-16 04:06:00,71.1,70.2,30.18,SE,146,0.0,1.0,97,0.00,,,0.00,WeatherCatV1.15B25,2013-07-16 09:06:00,
2013-07-16 04:11:00,71.0,70.1,30.18,SSE,149,0.0,3.0,97,0.00,,,0.00,WeatherCatV1.15B25,2013-07-16 09:11:00,
2013-07-16 04:16:00,70.9,69.7,30.18,SSE,155,2.0,2.0,96,0.00,,,0.00,WeatherCatV1.15B25,2013-07-16 09:16:00,
2013-07-16 04:21:00,70.8,69.9,30.18,SSE,150,0.0,0.0,97,0.00,,,0.00,WeatherCatV1.15B25,2013-07-16 09:21:00,
2013-07-16 04:26:00,70.8,69.9,30.18,SSE,150,1.0,3.0,97,0.00,,,0.00,WeatherCatV1.15B25,2013-07-16 09:26:00,
2013-07-16 04:31:00,70.8,69.9,30.18,SSE,150,0.0,0.0,97,0.00,,,0.00,WeatherCatV1.15B25,2013-07-16 09:31:00,
2013-07-16 04:36:00,70.7,69.8,30.18,SSE,150,0.0,1.0,97,0.00,,,0.00,WeatherCatV1.15B25,2013-07-16 09:36:00,
2013-07-16 04:41:00,70.6,69.7,30.18,SSE,150,0.0,0.0,97,0.00,,,0.00,WeatherCatV1.15B25,2013-07-16 09:41:00,
2013-07-16 04:46:00,70.5,69.6,30.18,SSE,150,0.0,1.0,97,0.00,,,0.00,WeatherCatV1.15B25,2013-07-16 09:46:00,
2013-07-16 04:51:00,70.4,69.5,30.18,SSE,150,0.0,0.0,97,0.00,,,0.00,WeatherCatV1.15B25,2013-07-16 09:51:00,
2013-07-16 04:56:00,70.4,69.5,30.18,SSE,150,0.0,1.0,97,0.00,,,0.00,WeatherCatV1.15B25,2013-07-16 09:56:00,
2013-07-16 05:01:00,70.3,69.4,30.19,SSE,150,0.0,1.0,97,0.00,,,0.00,WeatherCatV1.15B25,2013-07-16 10:01:00,
2013-07-16 05:06:00,70.3,69.4,30.19,SSE,150,0.0,0.0,97,0.00,,,0.00,WeatherCatV1.15B25,2013-07-16 10:06:00,
2013-07-16 05:11:00,70.2,69.3,30.19,SSE,150,0.0,0.0,97,0.00,,,0.00,WeatherCatV1.15B25,2013-07-16 10:11:00,
2013-07-16 05:16:00,70.1,69.2,30.19,SSE,150,0.0,0.0,97,0.00,,,0.00,WeatherCatV1.15B25,2013-07-16 10:16:00,
2013-07-16 05:21:00,69.9,68.7,30.19,SSE,150,0.0,0.0,96,0.00,,,0.00,WeatherCatV1.15B25,2013-07-16 10:21:00,
2013-07-16 05:26:00,69.8,68.9,30.19,SSE,150,0.0,0.0,97,0.00,,,0.00,WeatherCatV1.15B25,2013-07-16 10:26:00,
2013-07-16 05:31:00,69.6,68.7,30.19,SSE,150,0.0,1.0,97,0.00,,,0.00,WeatherCatV1.15B25,2013-07-16 10:31:00,
2013-07-16 05:36:00,69.5,68.3,30.19,SSE,150,0.0,0.0,96,0.00,,,0.00,WeatherCatV1.15B25,2013-07-16 10:36:00,
2013-07-16 05:41:00,69.5,68.3,30.19,SSE,150,0.0,0.0,96,0.00,,,0.00,WeatherCatV1.15B25,2013-07-16 10:41:00,
2013-07-16 05:46:00,69.4,68.5,30.19,SSE,150,0.0,1.0,97,0.00,,,0.00,WeatherCatV1.15B25,2013-07-16 10:46:00,
2013-07-16 05:51:00,69.3,68.4,30.20,SSE,150,0.0,0.0,97,0.00,,,0.00,WeatherCatV1.15B25,2013-07-16 10:51:00,
2013-07-16 05:56:00,69.2,68.3,30.20,SSE,150,0.0,0.0,97,0.00,,,0.00,WeatherCatV1.15B25,2013-07-16 10:56:00,
2013-07-16 06:01:00,69.2,68.3,30.20,SSE,150,0.0,0.0,97,0.00,,,0.00,WeatherCatV1.15B25,2013-07-16 11:01:00,
2013-07-16 06:06:00,69.1,68.2,30.20,SSE,150,0.0,0.0,97,0.00,,,0.00,WeatherCatV1.15B25,2013-07-16 11:06:00,
2013-07-16 06:11:00,69.1,68.2,30.20,SSE,150,0.0,0.0,97,0.00,,,0.00,WeatherCatV1.15B25,2013-07-16 11:11:00,
2013-07-16 06:16:00,69.1,68.2,30.21,SSE,150,0.0,1.0,97,0.00,,,0.00,WeatherCatV1.15B25,2013-07-16 11:16:00,
2013-07-16 06:21:00,69.2,68.3,30.20,SE,142,2.0,2.0,97,0.00,,,0.00,WeatherCatV1.15B25,2013-07-16 11:21:00,
2013-07-16 06:26:00,69.3,68.4,30.21,SE,140,0.0,1.0,97,0.00,,,0.00,WeatherCatV1.15B25,2013-07-16 11:26:00,
2013-07-16 06:31:00,69.3,68.4,30.21,SSW,194,1.0,1.0,97,0.00,,,0.00,WeatherCatV1.15B25,2013-07-16 11:31:00,
2013-07-16 06:36:00,69.5,68.9,30.21,ESE,116,1.0,2.0,98,0.00,,,0.00,WeatherCatV1.15B25,2013-07-16 11:36:00,
2013-07-16 06:41:00,69.7,68.8,30.21,SE,128,0.0,3.0,97,0.00,,,0.00,WeatherCatV1.15B25,2013-07-16 11:41:00,
2013-07-16 06:46:00,69.8,69.2,30.21,SE,140,2.0,2.0,98,0.00,,,0.00,WeatherCatV1.15B25,2013-07-16 11:46:00,
2013-07-16 06:51:00,70.2,69.6,30.21,SE,139,1.0,5.0,98,0.00,,,0.00,WeatherCatV1.15B25,2013-07-16 11:51:00,
2013-07-16 06:56:00,70.4,69.8,30.21,SE,146,0.0,2.0,98,0.00,,,0.00,WeatherCatV1.15B25,2013-07-16 11:56:00,
2013-07-16 07:01:00,70.6,70.0,30.21,SE,136,0.0,3.0,98,0.00,,,0.00,WeatherCatV1.15B25,2013-07-16 12:01:00,
2013-07-16 07:06:00,70.8,70.2,30.22,SE,129,0.0,4.0,98,0.00,,,0.00,WeatherCatV1.15B25,2013-07-16 12:06:00,
2013-07-16 07:11:00,71.0,70.4,30.22,ESE,119,0.0,5.0,98,0.00,,,0.00,WeatherCatV1.15B25,2013-07-16 12:11:00,
2013-07-16 07:16:00,71.1,70.5,30.22,NNE,22,1.0,3.0,98,0.00,,,0.00,WeatherCatV1.15B25,2013-07-16 12:16:00,
2013-07-16 07:21:00,71.3,70.7,30.22,ENE,69,0.0,2.0,98,0.00,,,0.00,WeatherCatV1.15B25,2013-07-16 12:21:00,
2013-07-16 07:26:00,71.4,70.8,30.22,ENE,71,2.0,2.0,98,0.00,,,0.00,WeatherCatV1.15B25,2013-07-16 12:26:00,
2013-07-16 07:31:00,71.6,71.0,30.22,SE,146,0.0,2.0,98,0.00,,,0.00,WeatherCatV1.15B25,2013-07-16 12:31:00,
2013-07-16 07:36:00,71.7,71.1,30.22,SSE,153,0.0,1.0,98,0.00,,,0.00,WeatherCatV1.15B25,2013-07-16 12:36:00,
2013-07-16 07:41:00,71.8,71.2,30.22,ESE,121,0.0,2.0,98,0.00,,,0.00,WeatherCatV1.15B25,2013-07-16 12:41:00,
2013-07-16 07:46:00,71.9,71.3,30.22,ESE,122,1.0,1.0,98,0.00,,,0.00,WeatherCatV1.15B25,2013-07-16 12:46:00,
2013-07-16 07:51:00,72.1,71.5,30.23,SE,140,4.0,4.0,98,0.00,,,0.00,WeatherCatV1.15B25,2013-07-16 12:51:00,
2013-07-16 07:56:00,72.2,71.6,30.23,SSE,159,0.0,4.0,98,0.00,,,0.00,WeatherCatV1.15B25,2013-07-16 12:56:00,
2013-07-16 07:58:00,72.3,71.7,30.23,SSE,159,0.0,1.0,98,0.00,,,0.00,WeatherCatV1.15B25,2013-07-16 12:58:00,
2013-07-16 08:03:00,72.4,71.8,30.23,SSE,158,1.0,4.0,98,0.00,,,0.00,WeatherCatV1.15B25,2013-07-16 13:03:00,
2013-07-16 08:08:00,72.6,72.3,30.23,SSE,161,0.0,1.0,99,0.00,,,0.00,WeatherCatV1.15B25,2013-07-16 13:08:00,
2013-07-16 08:13:00,72.8,72.2,30.23,SSE,151,3.0,4.0,98,0.00,,,0.00,WeatherCatV1.15B25,2013-07-16 13:13:00,
2013-07-16 08:18:00,72.9,72.3,30.24,SSE,150,0.0,3.0,98,0.00,,,0.00,WeatherCatV1.15B25,2013-07-16 13:18:00,
2013-07-16 08:23:00,73.2,72.9,30.24,SE,130,0.0,3.0,99,0.00,,,0.00,WeatherCatV1.15B25,2013-07-16 13:23:00,
2013-07-16 08:28:00,73.2,72.6,30.24,SSE,158,1.0,6.0,98,0.00,,,0.00,WeatherCatV1.15B25,2013-07-16 13:28:00,
2013-07-16 08:33:00,73.5,72.9,30.23,South,175,2.0,4.0,98,0.00,,,0.00,WeatherCatV1.15B25,2013-07-16 13:33:00,
2013-07-16 08:38:00,73.8,73.5,30.24,SE,133,1.0,3.0,99,0.00,,,0.01,WeatherCatV1.15B25,2013-07-16 13:38:00,
2013-07-16 08:43:00,74.3,74.0,30.24,South,184,1.0,4.0,99,0.00,,,0.01,WeatherCatV1.15B25,2013-07-16 13:43:00,
2013-07-16 08:48:00,74.3,73.7,30.24,ESE,105,3.0,4.0,98,0.00,,,0.01,WeatherCatV1.15B25,2013-07-16 13:48:00,
2013-07-16 08:53:00,73.9,73.3,30.24,SSW,198,1.0,3.0,98,0.00,,,0.01,WeatherCatV1.15B25,2013-07-16 13:53:00,
2013-07-16 08:58:00,74.0,73.4,30.24,SSE,159,1.0,3.0,98,0.00,,,0.01,WeatherCatV1.15B25,2013-07-16 13:58:00,
2013-07-16 09:03:00,74.5,73.9,30.24,SSE,168,0.0,3.0,98,0.00,,,0.01,WeatherCatV1.15B25,2013-07-16 14:03:00,
2013-07-16 09:08:00,74.6,74.0,30.24,SSE,150,3.0,5.0,98,0.00,,,0.01,WeatherCatV1.15B25,2013-07-16 14:08:00,
2013-07-16 09:13:00,74.7,73.8,30.25,ESE,111,4.0,5.0,97,0.00,,,0.01,WeatherCatV1.15B25,2013-07-16 14:13:00,
2013-07-16 09:18:00,75.2,74.6,30.25,South,176,1.0,3.0,98,0.00,,,0.01,WeatherCatV1.15B25,2013-07-16 14:18:00,
2013-07-16 09:23:00,75.9,75.0,30.25,SSW,202,2.0,3.0,97,0.00,,,0.01,WeatherCatV1.15B25,2013-07-16 14:23:00,
2013-07-16 09:28:00,76.4,75.5,30.25,SE,146,0.0,5.0,97,0.00,,,0.01,WeatherCatV1.15B25,2013-07-16 14:28:00,
2013-07-16 09:33:00,76.9,75.7,30.25,SE,134,5.0,6.0,96,0.00,,,0.01,WeatherCatV1.15B25,2013-07-16 14:33:00,
2013-07-16 09:38:00,77.3,75.4,30.25,SSE,149,0.0,4.0,94,0.00,,,0.01,WeatherCatV1.15B25,2013-07-16 14:38:00,
2013-07-16 09:43:00,77.8,75.6,30.25,South,173,2.0,3.0,93,0.00,,,0.01,WeatherCatV1.15B25,2013-07-16 14:43:00,
2013-07-16 09:48:00,78.4,76.2,30.25,South,175,1.0,1.0,93,0.00,,,0.01,WeatherCatV1.15B25,2013-07-16 14:48:00,
2013-07-16 09:53:00,79.1,76.2,30.25,SSW,198,2.0,5.0,91,0.00,,,0.01,WeatherCatV1.15B25,2013-07-16 14:53:00,
2013-07-16 09:58:00,80.0,76.5,30.25,South,190,2.0,3.0,89,0.00,,,0.01,WeatherCatV1.15B25,2013-07-16 14:58:00,
2013-07-16 10:03:00,80.2,75.3,30.25,SE,141,4.0,5.0,85,0.00,,,0.01,WeatherCatV1.15B25,2013-07-16 15:03:00,
2013-07-16 10:08:00,80.5,75.2,30.25,SSW,197,5.0,6.0,84,0.00,,,0.01,WeatherCatV1.15B25,2013-07-16 15:08:00,
2013-07-16 10:13:00,80.8,74.8,30.25,SE,146,3.0,5.0,82,0.00,,,0.01,WeatherCatV1.15B25,2013-07-16 15:13:00,
2013-07-16 10:18:00,81.1,75.4,30.25,ESE,119,9.0,9.0,83,0.00,,,0.01,WeatherCatV1.15B25,2013-07-16 15:18:00,
2013-07-16 10:23:00,81.4,75.4,30.25,SE,142,4.0,6.0,82,0.00,,,0.01,WeatherCatV1.15B25,2013-07-16 15:23:00,
2013-07-16 10:28:00,81.6,74.4,30.25,SE,140,3.0,7.0,79,0.00,,,0.01,WeatherCatV1.15B25,2013-07-16 15:28:00,
2013-07-16 10:33:00,82.0,74.8,30.25,SE,144,5.0,5.0,79,0.00,,,0.01,WeatherCatV1.15B25,2013-07-16 15:33:00,
2013-07-16 10:38:00,82.4,74.8,30.25,SSE,161,6.0,7.0,78,0.00,,,0.01,WeatherCatV1.15B25,2013-07-16 15:38:00,
2013-07-16 10:43:00,82.7,74.3,30.25,South,188,2.0,8.0,76,0.00,,,0.01,WeatherCatV1.15B25,2013-07-16 15:43:00,
2013-07-16 10:48:00,83.1,74.7,30.25,SE,132,2.0,4.0,76,0.00,,,0.01,WeatherCatV1.15B25,2013-07-16 15:48:00,
2013-07-16 10:53:00,83.6,74.0,30.25,SE,131,8.0,8.0,73,0.00,,,0.01,WeatherCatV1.15B25,2013-07-16 15:53:00,
2013-07-16 10:58:00,83.6,74.4,30.25,ESE,107,4.0,7.0,74,0.00,,,0.01,WeatherCatV1.15B25,2013-07-16 15:58:00,
2013-07-16 11:03:00,83.4,74.2,30.25,ESE,119,0.0,2.0,74,0.00,,,0.01,WeatherCatV1.15B25,2013-07-16 16:03:00,
2013-07-16 11:08:00,83.5,73.5,30.25,SSW,204,3.0,7.0,72,0.00,,,0.01,WeatherCatV1.15B25,2013-07-16 16:08:00,
2013-07-16 11:13:00,83.4,73.0,30.25,SSW,205,0.0,5.0,71,0.00,,,0.01,WeatherCatV1.15B25,2013-07-16 16:13:00,
2013-07-16 11:18:00,83.6,73.6,30.25,SSE,168,0.0,2.0,72,0.00,,,0.01,WeatherCatV1.15B25,2013-07-16 16:18:00,
2013-07-16 11:23:00,83.8,73.4,30.25,NE,42,3.0,4.0,71,0.00,,,0.01,WeatherCatV1.15B25,2013-07-16 16:23:00,
2013-07-16 11:28:00,84.5,73.2,30.25,South,186,3.0,7.0,69,0.00,,,0.01,WeatherCatV1.15B25,2013-07-16 16:28:00,
2013-07-16 11:33:00,84.6,72.8,30.25,SSE,151,5.0,6.0,68,0.00,,,0.01,WeatherCatV1.15B25,2013-07-16 16:33:00,
2013-07-16 11:38:00,84.8,73.5,30.25,SW,216,3.0,3.0,69,0.00,,,0.01,WeatherCatV1.15B25,2013-07-16 16:38:00,
2013-07-16 11:43:00,85.2,73.0,30.25,SSE,167,4.0,6.0,67,0.00,,,0.01,WeatherCatV1.15B25,2013-07-16 16:43:00,
2013-07-16 11:48:00,85.1,72.4,30.25,SSE,155,0.0,4.0,66,0.00,,,0.01,WeatherCatV1.15B25,2013-07-16 16:48:00,
2013-07-16 11:53:00,84.9,72.2,30.25,SSE,149,0.0,2.0,66,0.00,,,0.01,WeatherCatV1.15B25,2013-07-16 16:53:00,
2013-07-16 11:58:00,84.9,72.2,30.25,SW,222,1.0,4.0,66,0.00,,,0.01,WeatherCatV1.15B25,2013-07-16 16:58:00,
2013-07-16 12:03:00,85.1,72.9,30.25,SSW,200,3.0,7.0,67,0.00,,,0.01,WeatherCatV1.15B25,2013-07-16 17:03:00,
2013-07-16 12:08:00,85.6,72.5,30.25,South,189,4.0,6.0,65,0.00,,,0.01,WeatherCatV1.15B25,2013-07-16 17:08:00,
2013-07-16 12:13:00,86.0,71.4,30.24,SE,131,0.0,4.0,62,0.00,,,0.01,WeatherCatV1.15B25,2013-07-16 17:13:00,
2013-07-16 12:18:00,86.5,71.9,30.24,South,178,3.0,3.0,62,0.00,,,0.01,WeatherCatV1.15B25,2013-07-16 17:18:00,
2013-07-16 12:23:00,87.1,71.0,30.24,SE,132,3.0,7.0,59,0.00,,,0.01,WeatherCatV1.15B25,2013-07-16 17:23:00,
2013-07-16 12:28:00,86.8,71.7,30.24,East,90,2.0,4.0,61,0.00,,,0.01,WeatherCatV1.15B25,2013-07-16 17:28:00,
2013-07-16 12:33:00,87.2,71.6,30.23,SW,217,0.0,3.0,60,0.00,,,0.01,WeatherCatV1.15B25,2013-07-16 17:33:00,
2013-07-16 12:38:00,87.4,71.8,30.23,SSW,200,3.0,4.0,60,0.00,,,0.01,WeatherCatV1.15B25,2013-07-16 17:38:00,
2013-07-16 12:43:00,87.4,70.8,30.23,East,100,3.0,5.0,58,0.00,,,0.01,WeatherCatV1.15B25,2013-07-16 17:43:00,
2013-07-16 12:48:00,87.5,70.9,30.23,NE,48,3.0,5.0,58,0.00,,,0.01,WeatherCatV1.15B25,2013-07-16 17:48:00,
2013-07-16 12:53:00,87.5,70.9,30.23,SSE,155,1.0,2.0,58,0.00,,,0.01,WeatherCatV1.15B25,2013-07-16 17:53:00,
2013-07-16 12:58:00,88.0,70.8,30.23,SW,217,1.0,1.0,57,0.00,,,0.01,WeatherCatV1.15B25,2013-07-16 17:58:00,
2013-07-16 13:03:00,88.4,70.7,30.22,West,277,0.0,1.0,56,0.00,,,0.01,WeatherCatV1.15B25,2013-07-16 18:03:00,
2013-07-16 13:08:00,88.5,71.3,30.22,NE,36,3.0,4.0,57,0.00,,,0.01,WeatherCatV1.15B25,2013-07-16 18:08:00,
2013-07-16 13:13:00,88.5,70.8,30.22,SE,130,2.0,4.0,56,0.00,,,0.01,WeatherCatV1.15B25,2013-07-16 18:13:00,
2013-07-16 13:18:00,88.0,70.8,30.22,SE,137,4.0,7.0,57,0.00,,,0.01,WeatherCatV1.15B25,2013-07-16 18:18:00,
2013-07-16 13:23:00,88.2,71.5,30.22,ESE,103,0.0,4.0,58,0.00,,,0.01,WeatherCatV1.15B25,2013-07-16 18:23:00,
2013-07-16 13:28:00,88.6,70.3,30.22,ESE,121,2.0,7.0,55,0.00,,,0.01,WeatherCatV1.15B25,2013-07-16 18:28:00,
2013-07-16 13:33:00,88.4,69.6,30.22,SSE,157,1.0,1.0,54,0.00,,,0.01,WeatherCatV1.15B25,2013-07-16 18:33:00,
2013-07-16 13:38:00,88.9,70.6,30.21,West,281,2.0,3.0,55,0.00,,,0.01,WeatherCatV1.15B25,2013-07-16 18:38:00,
2013-07-16 13:43:00,89.1,70.2,30.21,WNW,290,1.0,2.0,54,0.00,,,0.01,WeatherCatV1.15B25,2013-07-16 18:43:00,
2013-07-16 13:48:00,89.3,69.9,30.21,East,86,2.0,5.0,53,0.00,,,0.01,WeatherCatV1.15B25,2013-07-16 18:48:00,
2013-07-16 13:53:00,89.8,71.4,30.21,SSE,160,2.0,3.0,55,0.00,,,0.01,WeatherCatV1.15B25,2013-07-16 18:53:00,
2013-07-16 13:58:00,90.0,71.1,30.21,East,86,2.0,3.0,54,0.00,,,0.01,WeatherCatV1.15B25,2013-07-16 18:58:00,
2013-07-16 14:03:00,90.3,70.8,30.20,East,101,0.0,9.0,53,0.00,,,0.01,WeatherCatV1.15B25,2013-07-16 19:03:00,
2013-07-16 14:08:00,90.8,71.3,30.20,SSE,153,2.0,5.0,53,0.00,,,0.01,WeatherCatV1.15B25,2013-07-16 19:08:00,
2013-07-16 14:13:00,91.1,70.4,30.20,SE,141,4.0,6.0,51,0.00,,,0.01,WeatherCatV1.15B25,2013-07-16 19:13:00,
2013-07-16 14:18:00,90.9,70.8,30.20,ENE,68,2.0,7.0,52,0.00,,,0.01,WeatherCatV1.15B25,2013-07-16 19:18:00,
2013-07-16 14:23:00,90.6,69.9,30.20,SE,136,3.0,3.0,51,0.00,,,0.01,WeatherCatV1.15B25,2013-07-16 19:23:00,
2013-07-16 14:28:00,90.1,68.9,30.20,ESE,117,3.0,6.0,50,0.00,,,0.01,WeatherCatV1.15B25,2013-07-16 19:28:00,
2013-07-16 14:33:00,89.7,69.7,30.20,NE,34,0.0,6.0,52,0.00,,,0.01,WeatherCatV1.15B25,2013-07-16 19:33:00,
2013-07-16 14:38:00,89.2,68.7,30.20,ESE,112,1.0,10.0,51,0.00,,,0.01,WeatherCatV1.15B25,2013-07-16 19:38:00,
2013-07-16 14:43:00,88.3,70.6,30.20,ESE,111,5.0,10.0,56,0.00,,,0.01,WeatherCatV1.15B25,2013-07-16 19:43:00,
2013-07-16 14:48:00,87.1,70.5,30.20,SSE,158,4.0,8.0,58,0.00,,,0.01,WeatherCatV1.15B25,2013-07-16 19:48:00,
2013-07-16 14:53:00,86.8,70.7,30.19,East,95,1.0,8.0,59,0.00,,,0.01,WeatherCatV1.15B25,2013-07-16 19:53:00,
2013-07-16 14:58:00,87.0,71.4,30.19,ESE,107,1.0,6.0,60,0.00,,,0.01,WeatherCatV1.15B25,2013-07-16 19:58:00,
2013-07-16 15:03:00,87.3,70.7,30.19,ENE,57,5.0,10.0,58,0.00,,,0.01,WeatherCatV1.15B25,2013-07-16 20:03:00,
2013-07-16 15:08:00,87.7,71.1,30.19,ENE,64,4.0,10.0,58,0.00,,,0.01,WeatherCatV1.15B25,2013-07-16 20:08:00,
2013-07-16 15:13:00,88.1,70.9,30.19,East,83,6.0,6.0,57,0.00,,,0.01,WeatherCatV1.15B25,2013-07-16 20:13:00,
2013-07-16 15:18:00,88.5,70.8,30.19,South,178,6.0,11.0,56,0.00,,,0.01,WeatherCatV1.15B25,2013-07-16 20:18:00,
2013-07-16 15:23:00,88.3,71.1,30.19,SW,236,1.0,9.0,57,0.00,,,0.01,WeatherCatV1.15B25,2013-07-16 20:23:00,
2013-07-16 15:28:00,88.8,70.0,30.18,East,93,5.0,9.0,54,0.00,,,0.01,WeatherCatV1.15B25,2013-07-16 20:28:00,
2013-07-16 15:33:00,89.0,71.2,30.19,SSE,153,7.0,9.0,56,0.00,,,0.01,WeatherCatV1.15B25,2013-07-16 20:33:00,
2013-07-16 15:38:00,88.6,72.4,30.19,ENE,63,9.0,9.0,59,0.00,,,0.01,WeatherCatV1.15B25,2013-07-16 20:38:00,
2013-07-16 15:43:00,87.8,72.1,30.18,East,94,5.0,6.0,60,0.00,,,0.01,WeatherCatV1.15B25,2013-07-16 20:43:00,
2013-07-16 15:48:00,87.1,72.0,30.18,NE,40,9.0,10.0,61,0.00,,,0.01,WeatherCatV1.15B25,2013-07-16 20:48:00,
2013-07-16 15:53:00,86.3,71.7,30.18,NE,44,6.0,10.0,62,0.00,,,0.01,WeatherCatV1.15B25,2013-07-16 20:53:00,
2013-07-16 15:58:00,85.9,72.3,30.18,NE,52,6.0,6.0,64,0.00,,,0.01,WeatherCatV1.15B25,2013-07-16 20:58:00,
2013-07-16 16:03:00,85.8,72.2,30.18,ESE,106,2.0,4.0,64,0.00,,,0.01,WeatherCatV1.15B25,2013-07-16 21:03:00,
2013-07-16 16:08:00,85.8,71.7,30.19,NE,36,4.0,6.0,63,0.00,,,0.01,WeatherCatV1.15B25,2013-07-16 21:08:00,
2013-07-16 16:13:00,85.9,72.3,30.20,NNE,13,2.0,5.0,64,0.00,,,0.01,WeatherCatV1.15B25,2013-07-16 21:13:00,
2013-07-16 16:18:00,85.9,72.3,30.19,SW,231,1.0,2.0,64,0.00,,,0.01,WeatherCatV1.15B25,2013-07-16 21:18:00,
2013-07-16 16:23:00,85.7,72.1,30.18,ENE,69,5.0,9.0,64,0.00,,,0.01,WeatherCatV1.15B25,2013-07-16 21:23:00,
2013-07-16 16:28:00,85.3,72.2,30.18,NE,54,3.0,9.0,65,0.00,,,0.01,WeatherCatV1.15B25,2013-07-16 21:28:00,
2013-07-16 16:33:00,84.9,72.2,30.18,ENE,71,1.0,7.0,66,0.00,,,0.01,WeatherCatV1.15B25,2013-07-16 21:33:00,
2013-07-16 16:41:00,84.7,74.2,30.19,ENE,71,1.0,4.0,71,0.36,,,0.04,WeatherCatV1.15B25,2013-07-16 21:41:00,
2013-07-16 16:46:00,84.5,75.7,30.20,ENE,71,0.0,0.0,75,0.09,,,0.04,WeatherCatV1.15B25,2013-07-16 21:46:00,
2013-07-16 16:51:00,84.3,75.9,30.20,ENE,67,1.0,2.0,76,0.05,,,0.04,WeatherCatV1.15B25,2013-07-16 21:51:00,
2013-07-16 16:56:00,83.9,75.9,30.20,NW,321,0.0,1.0,77,0.04,,,0.04,WeatherCatV1.15B25,2013-07-16 21:56:00,
2013-07-16 17:01:00,83.4,75.8,30.20,NW,321,1.0,2.0,78,0.00,,,0.04,WeatherCatV1.15B25,2013-07-16 22:01:00,
2013-07-16 17:06:00,82.7,75.5,30.21,WNW,295,0.0,2.0,79,0.00,,,0.04,WeatherCatV1.15B25,2013-07-16 22:06:00,
2013-07-16 17:11:00,81.8,74.6,30.21,WNW,283,2.0,3.0,79,0.00,,,0.04,WeatherCatV1.15B25,2013-07-16 22:11:00,
2013-07-16 17:16:00,81.1,75.1,30.20,West,279,2.0,2.0,82,0.00,,,0.04,WeatherCatV1.15B25,2013-07-16 22:16:00,
2013-07-16 17:21:00,80.5,75.2,30.20,WSW,242,3.0,3.0,84,0.00,,,0.04,WeatherCatV1.15B25,2013-07-16 22:21:00,
2013-07-16 17:26:00,79.9,74.6,30.20,WSW,242,2.0,3.0,84,0.00,,,0.04,WeatherCatV1.15B25,2013-07-16 22:26:00,
2013-07-16 17:31:00,79.2,73.9,30.20,NNW,331,3.0,5.0,84,0.00,,,0.04,WeatherCatV1.15B25,2013-07-16 22:31:00,
2013-07-16 17:36:00,78.9,74.0,30.20,NW,311,1.0,2.0,85,0.00,,,0.04,WeatherCatV1.15B25,2013-07-16 22:36:00,
2013-07-16 17:41:00,78.8,74.2,30.21,SSE,167,1.0,2.0,86,0.00,,,0.04,WeatherCatV1.15B25,2013-07-16 22:41:00,
2013-07-16 17:46:00,78.5,74.3,30.22,South,171,2.0,3.0,87,0.00,,,0.04,WeatherCatV1.15B25,2013-07-16 22:46:00,
2013-07-16 17:51:00,78.4,74.2,30.21,South,191,0.0,0.0,87,0.00,,,0.04,WeatherCatV1.15B25,2013-07-16 22:51:00,
2013-07-16 17:56:00,78.2,74.0,30.20,NNW,340,0.0,5.0,87,0.00,,,0.04,WeatherCatV1.15B25,2013-07-16 22:56:00,
2013-07-16 18:01:00,78.2,74.3,30.19,ENE,62,0.0,3.0,88,0.00,,,0.04,WeatherCatV1.15B25,2013-07-16 23:01:00,
2013-07-16 18:06:00,78.0,73.5,30.20,ENE,74,5.0,7.0,86,0.00,,,0.04,WeatherCatV1.15B25,2013-07-16 23:06:00,
2013-07-16 18:11:00,77.9,73.4,30.19,East,88,1.0,1.0,86,0.00,,,0.04,WeatherCatV1.15B25,2013-07-16 23:11:00,
2013-07-16 18:16:00,78.0,73.5,30.20,East,88,0.0,1.0,86,0.00,,,0.04,WeatherCatV1.15B25,2013-07-16 23:16:00,
2013-07-16 18:21:00,77.9,73.4,30.20,ENE,70,1.0,4.0,86,0.00,,,0.04,WeatherCatV1.15B25,2013-07-16 23:21:00,
2013-07-16 18:26:00,77.9,73.0,30.19,NNW,348,0.0,2.0,85,0.00,,,0.04,WeatherCatV1.15B25,2013-07-16 23:26:00,
2013-07-16 18:31:00,77.8,72.9,30.20,ENE,63,4.0,4.0,85,0.00,,,0.04,WeatherCatV1.15B25,2013-07-16 23:31:00,
2013-07-16 18:36:00,77.8,73.3,30.20,ENE,74,0.0,1.0,86,0.00,,,0.04,WeatherCatV1.15B25,2013-07-16 23:36:00,
2013-07-16 18:41:00,77.7,73.2,30.20,ESE,102,0.0,4.0,86,0.00,,,0.04,WeatherCatV1.15B25,2013-07-16 23:41:00,
2013-07-16 18:46:00,77.6,73.1,30.20,NE,45,6.0,6.0,86,0.00,,,0.04,WeatherCatV1.15B25,2013-07-16 23:46:00,
2013-07-16 18:51:00,77.5,73.0,30.19,ENE,73,2.0,9.0,86,0.00,,,0.04,WeatherCatV1.15B25,2013-07-16 23:51:00,
2013-07-16 18:56:00,77.5,72.6,30.19,ENE,78,1.0,3.0,85,0.00,,,0.04,WeatherCatV1.15B25,2013-07-16 23:56:00,
2013-07-16 19:01:00,77.5,72.6,30.19,NE,42,4.0,4.0,85,0.00,,,0.04,WeatherCatV1.15B25,2013-07-17 00:01:00,
2013-07-16 19:06:00,77.5,72.3,30.19,ENE,76,1.0,5.0,84,0.00,,,0.04,WeatherCatV1.15B25,2013-07-17 00:06:00,
2013-07-16 19:11:00,77.5,72.3,30.20,East,93,0.0,1.0,84,0.00,,,0.04,WeatherCatV1.15B25,2013-07-17 00:11:00,
2013-07-16 19:16:00,77.4,71.8,30.20,ESE,113,0.0,1.0,83,0.00,,,0.04,WeatherCatV1.15B25,2013-07-17 00:16:00,
2013-07-16 19:21:00,77.4,71.8,30.20,SSW,198,0.0,0.0,83,0.00,,,0.04,WeatherCatV1.15B25,2013-07-17 00:21:00,
2013-07-16 19:26:00,77.4,71.8,30.20,ESE,107,3.0,4.0,83,0.00,,,0.04,WeatherCatV1.15B25,2013-07-17 00:26:00,
2013-07-16 19:31:00,77.3,71.4,30.20,East,94,0.0,0.0,82,0.00,,,0.04,WeatherCatV1.15B25,2013-07-17 00:31:00,
2013-07-16 19:36:00,77.4,71.8,30.20,East,94,0.0,1.0,83,0.00,,,0.04,WeatherCatV1.15B25,2013-07-17 00:36:00,
2013-07-16 19:41:00,77.4,72.2,30.21,SSE,159,1.0,2.0,84,0.00,,,0.04,WeatherCatV1.15B25,2013-07-17 00:41:00,
2013-07-16 19:46:00,77.2,71.6,30.21,SSE,161,0.0,0.0,83,0.00,,,0.04,WeatherCatV1.15B25,2013-07-17 00:46:00,
2013-07-16 19:51:00,77.1,71.9,30.21,SSE,161,0.0,0.0,84,0.00,,,0.04,WeatherCatV1.15B25,2013-07-17 00:51:00,
2013-07-16 19:56:00,77.0,71.4,30.21,SSE,161,0.0,1.0,83,0.00,,,0.04,WeatherCatV1.15B25,2013-07-17 00:56:00,
2013-07-16 20:01:00,76.8,71.6,30.21,SSE,161,0.0,0.0,84,0.00,,,0.04,WeatherCatV1.15B25,2013-07-17 01:01:00,
2013-07-16 20:06:00,76.8,71.9,30.22,SSE,161,0.0,0.0,85,0.00,,,0.04,WeatherCatV1.15B25,2013-07-17 01:06:00,
2013-07-16 20:11:00,76.7,71.8,30.21,SE,139,0.0,2.0,85,0.00,,,0.04,WeatherCatV1.15B25,2013-07-17 01:11:00,
2013-07-16 20:16:00,76.5,71.6,30.21,East,82,1.0,2.0,85,0.00,,,0.04,WeatherCatV1.15B25,2013-07-17 01:16:00,
2013-07-16 20:21:00,76.4,71.5,30.20,East,100,0.0,1.0,85,0.00,,,0.04,WeatherCatV1.15B25,2013-07-17 01:21:00,
2013-07-16 20:26:00,76.3,71.4,30.20,NNE,14,0.0,0.0,85,0.00,,,0.04,WeatherCatV1.15B25,2013-07-17 01:26:00,
2013-07-16 20:31:00,76.2,71.3,30.20,NNE,17,0.0,0.0,85,0.00,,,0.04,WeatherCatV1.15B25,2013-07-17 01:31:00,
2013-07-16 20:36:00,76.1,71.2,30.20,NNE,17,0.0,0.0,85,0.00,,,0.04,WeatherCatV1.15B25,2013-07-17 01:36:00,
2013-07-16 20:41:00,76.0,71.5,30.20,ENE,61,1.0,2.0,86,0.00,,,0.04,WeatherCatV1.15B25,2013-07-17 01:41:00,
2013-07-16 20:46:00,75.9,71.1,30.21,NE,51,0.0,0.0,85,0.00,,,0.04,WeatherCatV1.15B25,2013-07-17 01:46:00,
2013-07-16 20:51:00,75.8,71.3,30.21,NE,51,0.0,0.0,86,0.00,,,0.04,WeatherCatV1.15B25,2013-07-17 01:51:00,
2013-07-16 20:56:00,75.8,71.3,30.21,NE,51,0.0,0.0,86,0.00,,,0.04,WeatherCatV1.15B25,2013-07-17 01:56:00,
2013-07-16 21:01:00,75.7,71.2,30.22,NE,51,0.0,0.0,86,0.00,,,0.04,WeatherCatV1.15B25,2013-07-17 02:01:00,
2013-07-16 21:06:00,75.6,71.4,30.22,NE,51,0.0,0.0,87,0.00,,,0.04,WeatherCatV1.15B25,2013-07-17 02:06:00,
2013-07-16 21:11:00,75.4,71.2,30.22,NE,51,0.0,0.0,87,0.00,,,0.04,WeatherCatV1.15B25,2013-07-17 02:11:00,
2013-07-16 21:16:00,75.3,71.2,30.22,NE,51,0.0,0.0,87,0.00,,,0.04,WeatherCatV1.15B25,2013-07-17 02:16:00,
2013-07-16 21:21:00,75.1,71.0,30.22,NE,51,0.0,0.0,87,0.00,,,0.04,WeatherCatV1.15B25,2013-07-17 02:21:00,
2013-07-16 21:26:00,74.9,71.1,30.22,NE,51,0.0,0.0,88,0.00,,,0.04,WeatherCatV1.15B25,2013-07-17 02:26:00,
2013-07-16 21:31:00,74.7,70.9,30.22,NE,51,0.0,0.0,88,0.00,,,0.04,WeatherCatV1.15B25,2013-07-17 02:31:00,
2013-07-16 21:36:00,74.6,70.8,30.23,NE,51,0.0,0.0,88,0.00,,,0.04,WeatherCatV1.15B25,2013-07-17 02:36:00,
2013-07-16 21:41:00,74.4,70.9,30.23,NE,51,0.0,0.0,89,0.00,,,0.04,WeatherCatV1.15B25,2013-07-17 02:41:00,
2013-07-16 21:46:00,74.2,70.7,30.23,NE,51,0.0,1.0,89,0.00,,,0.04,WeatherCatV1.15B25,2013-07-17 02:46:00,
2013-07-16 21:51:00,74.1,71.0,30.23,NE,51,0.0,1.0,90,0.00,,,0.04,WeatherCatV1.15B25,2013-07-17 02:51:00,
2013-07-16 21:56:00,74.0,70.9,30.23,NE,51,0.0,0.0,90,0.00,,,0.04,WeatherCatV1.15B25,2013-07-17 02:56:00,
2013-07-16 22:01:00,73.9,70.8,30.24,NE,51,0.0,0.0,90,0.00,,,0.04,WeatherCatV1.15B25,2013-07-17 03:01:00,
2013-07-16 22:06:00,73.9,71.1,30.24,NE,51,0.0,1.0,91,0.00,,,0.04,WeatherCatV1.15B25,2013-07-17 03:06:00,
2013-07-16 22:11:00,73.9,71.1,30.24,NE,51,0.0,0.0,91,0.00,,,0.04,WeatherCatV1.15B25,2013-07-17 03:11:00,
2013-07-16 22:16:00,73.8,71.0,30.24,ENE,70,0.0,0.0,91,0.00,,,0.04,WeatherCatV1.15B25,2013-07-17 03:16:00,
2013-07-16 22:21:00,73.8,71.0,30.24,ENE,70,0.0,0.0,91,0.00,,,0.04,WeatherCatV1.15B25,2013-07-17 03:21:00,
2013-07-16 22:26:00,73.7,70.9,30.25,ENE,70,0.0,0.0,91,0.00,,,0.04,WeatherCatV1.15B25,2013-07-17 03:26:00,
2013-07-16 22:31:00,73.7,71.2,30.25,ENE,70,0.0,0.0,92,0.00,,,0.04,WeatherCatV1.15B25,2013-07-17 03:31:00,
2013-07-16 22:36:00,73.7,71.2,30.25,ENE,70,0.0,0.0,92,0.00,,,0.04,WeatherCatV1.15B25,2013-07-17 03:36:00,
2013-07-16 22:41:00,73.6,71.1,30.25,ENE,70,0.0,0.0,92,0.00,,,0.04,WeatherCatV1.15B25,2013-07-17 03:41:00,
2013-07-16 22:46:00,73.6,71.1,30.25,ENE,70,0.0,0.0,92,0.00,,,0.04,WeatherCatV1.15B25,2013-07-17 03:46:00,
2013-07-16 22:51:00,73.5,71.0,30.25,ENE,70,0.0,0.0,92,0.00,,,0.04,WeatherCatV1.15B25,2013-07-17 03:51:00,
2013-07-16 22:56:00,73.5,71.0,30.25,ENE,70,0.0,0.0,92,0.00,,,0.04,WeatherCatV1.15B25,2013-07-17 03:56:00,
2013-07-16 23:01:00,73.4,70.9,30.25,ENE,70,0.0,0.0,92,0.00,,,0.04,WeatherCatV1.15B25,2013-07-17 04:01:00,
2013-07-16 23:06:00,73.3,70.8,30.25,ENE,70,0.0,0.0,92,0.00,,,0.04,WeatherCatV1.15B25,2013-07-17 04:06:00,
2013-07-16 23:11:00,73.2,70.7,30.26,ENE,70,0.0,0.0,92,0.00,,,0.04,WeatherCatV1.15B25,2013-07-17 04:11:00,
2013-07-16 23:16:00,73.1,70.6,30.26,ENE,70,0.0,0.0,92,0.00,,,0.04,WeatherCatV1.15B25,2013-07-17 04:16:00,
2013-07-16 23:21:00,73.0,70.5,30.26,ENE,70,0.0,0.0,92,0.00,,,0.04,WeatherCatV1.15B25,2013-07-17 04:21:00,
2013-07-16 23:26:00,73.0,70.5,30.26,ENE,70,0.0,1.0,92,0.00,,,0.04,WeatherCatV1.15B25,2013-07-17 04:26:00,
2013-07-16 23:31:00,72.9,70.8,30.26,ENE,70,0.0,0.0,93,0.00,,,0.04,WeatherCatV1.15B25,2013-07-17 04:31:00,
2013-07-16 23:36:00,72.8,70.7,30.26,ENE,70,0.0,0.0,93,0.00,,,0.04,WeatherCatV1.15B25,2013-07-17 04:36:00,
2013-07-16 23:41:00,72.7,70.6,30.26,ENE,70,0.0,0.0,93,0.00,,,0.04,WeatherCatV1.15B25,2013-07-17 04:41:00,
2013-07-16 23:46:00,72.7,70.6,30.26,ENE,70,0.0,0.0,93,0.00,,,0.04,WeatherCatV1.15B25,2013-07-17 04:46:00,
2013-07-16 23:51:00,72.6,70.5,30.26,ENE,70,0.0,0.0,93,0.00,,,0.04,WeatherCatV1.15B25,2013-07-17 04:51:00,
2013-07-16 23:56:00,72.5,70.4,30.26,ENE,70,0.0,0.0,93,0.00,,,0.04,WeatherCatV1.15B25,2013-07-17 04:56:00,
2013-07-16 23:58:00,72.5,70.4,30.26,ENE,70,0.0,0.0,93,0.00,,,0.04,WeatherCatV1.15B25,2013-07-17 04:58:00,